Location: Norton
(51.3000°N, 0.8167°E)
Time: 11:23:44
(UTC+00:00)

SPOT 3 Rocket - Pass Details

Date: 03 March 2021
Orbit: 778 x 795 km, 98.7° (Epoch: 16 April)

Event Time Altitude Azimuth Distance (km) Brightness Sun altitude
Exits shadow 20:18:42 70° 138° (SE) 845 3.4 -25.0°
Maximum altitude 20:19:17 82° 73° (ENE) 809 3.4 -25.1°
Drops below altitude 10° 20:24:32 10° 346° (NNW) 2,376 6.5 -25.8°
Sets 20:26:53 0° 346° (NNW) 3,311 7.3 -26.2°
